Hourly Data Report for October 02, 2015

All times are specified in Local Standard Time (LST). Add 1 hour to adjust for Daylight Saving Time where and when it is observed.

MONCTON INTL A
NEW BRUNSWICK

46°06'44.000" N
64°40'43.000" W
70.70 m
8103201
71705
YQM

Download Data

Hourly Data (October 2015)
Hourly Data Report for October 2, 2015
Temp Definition
°C
Dew Point Temp Definition
°C
Rel Hum Definition
%
Wind Dir Definition
10's deg

Wind Spd Definition
km/h
Visibility Definition
km
Stn Press Definition
kPa
Hmdx Definition


Wind Chill Definition


Weather Definition


TIME
00:00 Legend Double Dagger 9.3 4.9 74 1 23 24.1 101.62     LegendNANA
01:00 Legend Double Dagger 9.3 5.3 76 1 22 24.1 101.63     LegendNANA
02:00 Legend Double Dagger 9.1 5.3 77 1 24 24.1 101.60     Cloudy
03:00 Legend Double Dagger 9.1 5.1 76 1 23 24.1 101.62     LegendNANA
04:00 Legend Double Dagger 8.8 5.2 78 2 25 24.1 101.66     LegendNANA
05:00 Legend Double Dagger 8.4 5.9 84 2 29 24.1 101.65     Drizzle
06:00 Legend Double Dagger 7.9 6.4 90 1 27 24.1 101.65     Rain Showers
07:00 Legend Double Dagger 8.1 5.9 86 1 22 24.1 101.66     Rain Showers
08:00 Legend Double Dagger 8.5 6.0 84 1 22 24.1 101.74     Rain Showers
09:00 Legend Double Dagger 9.1 5.7 79 1 27 24.1 101.78     LegendNANA
10:00 Legend Double Dagger 9.6 6.0 78 2 36 24.1 101.77     LegendNANA
11:00 Legend Double Dagger 9.5 6.6 82 2 33 24.1 101.75     Cloudy
12:00 Legend Double Dagger 10.4 6.9 79 2 20 24.1 101.81     LegendNANA
13:00 Legend Double Dagger 10.7 8.1 84 2 23 19.3 101.82     Rain Showers
14:00 Legend Double Dagger 10.1 8.7 91 36 21 19.3 101.81     Cloudy
15:00 Legend Double Dagger 9.6 7.7 88 1 26 24.1 101.86     Rain Showers
16:00 Legend Double Dagger 9.6 6.5 81 2 34 24.1 101.86     Rain Showers
17:00 Legend Double Dagger 9.0 6.8 86 2 29 24.1 101.91     Rain Showers
18:00 Legend Double Dagger 8.6 6.4 86 2 28 24.1 101.96     Rain Showers
19:00 Legend Double Dagger 8.6 6.2 85 2 23 24.1 102.01     LegendNANA
20:00 Legend Double Dagger 8.5 5.8 83 1 26 24.1 102.04     Cloudy
21:00 Legend Double Dagger 8.1 5.2 82 1 25 24.1 102.05     LegendNANA
22:00 Legend Double Dagger 8.5 5.4 81 1 27 24.1 102.06     LegendNANA
23:00 Legend Double Dagger 8.5 5.6 82 1 23 24.1 102.07     Cloudy

Notes on Data Quality.

Legend

  • E = Estimated
  • M = Missing
  • NA = Not Available
  • ‡ = Partner data that is not subject to review by the National Climate Archives
Date modified: